Location: Franzen
(48.6167°N, 15.3833°E)
Time: 22:11:09
(UTC+00:00)

X-37B - Visible Passes

Search period start: 22 June 2021 00:00
Search period end: 02 July 2021 00:00
Orbit: 386 x 389 km, 45.0° (Epoch: 10 June)

Date Brightness Start Highest point End Pass type
(mag) Time Alt. Az. Time Alt. Az. Time Alt. Az.
22 Jun 2.2 00:10:40 22° SE 00:10:40 22° SE 00:12:02 10° ESE visible
22 Jun 2.1 01:43:04 10° WSW 01:45:13 18° SSW 01:47:26 10° SSE visible
22 Jun 2.7 19:58:07 10° SSE 19:58:29 10° SSE 19:58:51 10° SE visible
23 Jun 3.1 00:49:38 10° SE 00:49:38 10° SE 00:49:42 10° SE visible
23 Jun 1.8 20:33:42 10° SSW 20:36:16 22° SSE 20:37:46 16° ESE visible
23 Jun 2.8 22:09:28 10° WSW 22:10:08 15° WSW 22:10:08 15° WSW visible
24 Jun 1.1 21:11:15 10° WSW 21:14:14 37° S 21:15:11 29° SE visible
25 Jun 1.4 20:13:09 10° SW 20:16:00 30° SSE 20:18:50 10° E visible
25 Jun 1.1 21:49:16 10° WSW 21:51:53 40° SSW 21:51:53 40° SSW visible
26 Jun 1.0 20:51:00 10° WSW 20:54:02 42° S 20:56:01 18° ESE visible
26 Jun 2.8 22:27:28 10° W 22:28:17 16° WSW 22:28:17 16° WSW visible
27 Jun 1.2 19:52:47 10° WSW 19:55:46 37° S 19:58:45 10° E visible
27 Jun 1.0 21:29:07 10° WSW 21:32:07 39° S 21:32:17 38° S visible
28 Jun 1.0 20:30:48 10° WSW 20:33:51 43° S 20:36:14 15° ESE visible
28 Jun 2.7 22:07:27 10° WSW 22:08:29 16° WSW 22:08:29 16° WSW visible
29 Jun 1.4 21:09:00 10° W 21:11:54 32° SSW 21:12:24 30° S visible
30 Jun 1.2 20:10:38 10° WSW 20:13:38 39° S 20:16:18 12° ESE visible
30 Jun 2.8 21:47:36 10° WSW 21:48:33 14° SW 21:48:33 14° SW visible
01 Jul 1.9 20:48:59 10° WSW 20:51:38 24° SSW 20:52:27 21° S visible
